Weather History for Grantley Adams, Barbados

Change the Weather History Date:

Saturday, February 16, 2013

  Actual Average Record
Temperature  
Mean Temperature 80 °F -  
Max Temperature 84 °F 83 °F 86 °F (1998)
Min Temperature 77 °F 74 °F 69 °F (2000)
Cooling Degree Days 16    
Growing Degree Days 30 (Base 50)    
Moisture  
Dew Point 70 °F    
Average Humidity 74    
Maximum Humidity 89    
Minimum Humidity 58    
Precipitation  
Precipitation 0.00 in - - ()
Sea Level Pressure  
Sea Level Pressure 29.97 in    
Wind  
Wind Speed 20 mph ()    
Max Wind Speed 26 mph    
Max Gust Speed -    
Visibility 7.4 miles    
Events Rain    
Averages and records for this station are not official NWS values.
T = Trace of Precipitation, MM = Missing Value Source: Averaged Metar Reports

Daily Weather History Graph

Daily Weather History Graph

Search for Another Location

Airport:

Trip Planner

Search our weather history database for the weather conditions in past years. The results will help you decide how hot, cold, wet, or windy it might be!

Date:

Astronomy

Feb. 16, 2013 Rise Set
Actual Time 6:20 AM AST 6:04 PM AST
Civil Twilight 5:58 AM AST 6:25 PM AST
Nautical Twilight 5:33 AM AST 6:50 PM AST
Astronomical Twilight 5:08 AM AST 7:15 PM AST
Moon 10:42 AM AST (2/16) 11:39 PM AST (2/16)
Length of Visible Light 12h 27m
Length of Day
11h 44m
Waxing Crescent, 39% of the Moon is Illuminated
Feb 16
Waxing Crescent
Feb 17
First Quarter
Feb 25
Full
Mar 4
Last Quarter
Mar 11
New

Hourly Weather History & Observations

Time (AST) Temp. Heat Index Dew Point Humidity Pressure Visibility Wind Dir Wind Speed Gust Speed Precip Events Conditions
12:00 AM 77.0 °F - 71.6 °F 83% 30.01 in 6.2 mi East 19.6 mph - N/A   Scattered Clouds
1:00 AM 77.0 °F - 69.8 °F 78% 29.98 in 6.2 mi ESE 24.2 mph - N/A   Scattered Clouds
2:00 AM 77 °F - 70 °F 74% 30.08 in 15 mi ESE 25.3 mph - -   Partly Cloudy
2:00 AM 77.0 °F - 71.6 °F 83% 29.98 in 6.2 mi ESE 25.3 mph - N/A   Scattered Clouds
3:00 AM 77.0 °F - 68.0 °F 74% 29.95 in 6.2 mi ESE 23.0 mph - N/A   Partly Cloudy
4:00 AM 77.0 °F - 66.2 °F 69% 29.95 in 6.2 mi ESE 25.3 mph - N/A   Scattered Clouds
5:00 AM 77 °F - 67 °F 64% 29.96 in 25 mi ESE 24.2 mph - -   Mostly Cloudy
5:00 AM 77.0 °F - 68.0 °F 74% 29.95 in 6.2 mi ESE 24.2 mph - N/A   Partly Cloudy
6:00 AM 77.0 °F - 68.0 °F 74% 29.98 in 6.2 mi ESE 23.0 mph - N/A   Partly Cloudy
7:00 AM 77.0 °F - 68.0 °F 74% 29.98 in 6.2 mi ESE 20.7 mph - N/A   Partly Cloudy
8:00 AM 78.8 °F - 68.0 °F 69% 30.01 in 6.2 mi East 25.3 mph - N/A   Partly Cloudy
9:00 AM 80.6 °F 84.6 °F 71.6 °F 74% 30.01 in 6.2 mi ESE 21.9 mph - N/A   Partly Cloudy
10:00 AM 80.6 °F 83.9 °F 69.8 °F 70% 30.01 in 6.2 mi ESE 24.2 mph - N/A   Partly Cloudy
11:00 AM 80 °F - 72 °F 72% 30.02 in 31 mi ESE 26.5 mph - -   Mostly Cloudy
11:00 AM 78.8 °F - 73.4 °F 83% 30.01 in 6.2 mi ESE 26.5 mph - N/A   Scattered Clouds
12:00 PM 82.4 °F 87.2 °F 71.6 °F 70% 29.98 in 6.2 mi ESE 13.8 mph - N/A   Partly Cloudy
1:00 PM 82.4 °F 88.2 °F 73.4 °F 74% 29.98 in 6.2 mi ESE 19.6 mph - N/A   Partly Cloudy
3:00 PM 82.4 °F 87.2 °F 71.6 °F 70% 29.92 in 6.2 mi ESE 23.0 mph - N/A   Partly Cloudy
4:00 PM 82.4 °F 85.4 °F 68.0 °F 62% 29.92 in 6.2 mi ESE 19.6 mph - N/A   Partly Cloudy
5:00 PM 81 °F - 69 °F 58% 29.92 in 31 mi ESE 19.6 mph - -  
6:00 PM 78.8 °F - 68.0 °F 69% 29.92 in 6.2 mi ESE 20.7 mph - N/A   Partly Cloudy
7:00 PM 78.8 °F - 69.8 °F 74% 29.92 in 6.2 mi ESE 18.4 mph - N/A   Partly Cloudy
8:00 PM 78 °F - 69 °F 66% 29.99 in 19 mi ESE 18.4 mph - -   Partly Cloudy
8:00 PM 78.8 °F - 68.0 °F 69% 29.95 in 6.2 mi ESE 18.4 mph - N/A   Scattered Clouds
9:00 PM 77.0 °F - 69.8 °F 78% 29.98 in 6.2 mi ESE 19.6 mph - N/A   Scattered Clouds
10:00 PM 77.0 °F - 71.6 °F 83% 29.98 in 6.2 mi ESE 20.7 mph - N/A Rain Light Rain Showers
11:00 PM 77 °F - 73 °F 84% 29.98 in 14 mi ESE 24.2 mph - -   Mostly Cloudy
11:00 PM 77.0 °F - 73.4 °F 89% 29.98 in 6.2 mi ESE 24.2 mph - N/A   Mostly Cloudy